Location: Unspecified
(22.6800°N, 112.2000°E)
Time: 07:09:31
(UTC+08:00)

X-37B - Pass Details

Date: 21 June 2021
Orbit: 383 x 392 km, 45.0° (Epoch: 01 July)

Event Time Altitude Azimuth Distance (km) Brightness Sun altitude
Rises 04:34:06 0° 332° (NNW) 2,255 4.5 -15.4°
Reaches altitude 10° 04:36:53 10° 360° (N) 1,403 3.9 -14.9°
Maximum altitude 04:38:39 14° 34° (NE) 1,188 4.1 -14.6°
Drops below altitude 10° 04:40:26 10° 68° (ENE) 1,404 4.7 -14.2°
Sets 04:43:13 0° 95° (E) 2,258 5.3 -13.7°
